Time,TemperatureF,DewpointF,PressureIn,WindDirection,WindDirectionDegrees,WindSpeedMPH,WindSpeedGustMPH,Humidity,HourlyPrecipIn,Conditions,Clouds,dailyrainin,SoftwareType,DateUTC
2013-07-06 00:14:00,68.3,68.0,30.18,NE,37,0.0,2.0,97,0.00,,,0.00,weatherlink.com 1.10,2013-07-06 04:14:00,
2013-07-06 00:29:00,68.1,68.0,30.18,NNE,25,2.0,3.0,98,0.00,,,0.00,weatherlink.com 1.10,2013-07-06 04:29:00,
2013-07-06 00:44:00,67.7,67.0,30.18,NE,44,2.0,2.0,97,0.00,,,0.00,weatherlink.com 1.10,2013-07-06 04:44:00,
2013-07-06 00:59:00,67.7,67.0,30.18,NE,34,0.0,2.0,98,0.00,,,0.00,weatherlink.com 1.10,2013-07-06 04:59:00,
2013-07-06 01:14:00,67.2,67.0,30.18,NE,35,2.0,2.0,98,0.00,,,0.00,weatherlink.com 1.10,2013-07-06 05:14:00,
2013-07-06 01:29:00,67.0,67.0,30.17,NE,36,0.0,0.0,98,0.00,,,0.00,weatherlink.com 1.10,2013-07-06 05:29:00,
2013-07-06 01:44:00,66.5,66.0,30.18,SE,137,0.0,1.0,98,0.00,,,0.00,weatherlink.com 1.10,2013-07-06 05:44:00,
2013-07-06 01:59:00,66.6,66.0,30.18,SE,136,1.0,1.0,99,0.00,,,0.00,weatherlink.com 1.10,2013-07-06 05:59:00,
2013-07-06 02:14:00,66.7,66.0,30.18,SE,136,0.0,1.0,99,0.00,,,0.00,weatherlink.com 1.10,2013-07-06 06:14:00,
2013-07-06 02:29:00,66.3,66.0,30.17,SE,137,0.0,1.0,98,0.00,,,0.00,weatherlink.com 1.10,2013-07-06 06:29:00,
2013-07-06 02:44:00,66.7,66.0,30.17,NE,44,2.0,2.0,99,0.00,,,0.00,weatherlink.com 1.10,2013-07-06 06:44:00,
2013-07-06 02:59:00,67.4,67.0,30.17,NNE,27,0.0,2.0,99,0.00,,,0.00,weatherlink.com 1.10,2013-07-06 06:59:00,
2013-07-06 03:14:00,66.6,66.0,30.17,NNE,27,0.0,0.0,98,0.00,,,0.00,weatherlink.com 1.10,2013-07-06 07:14:00,
2013-07-06 03:29:00,66.3,66.0,30.17,NNE,27,0.0,1.0,99,0.00,,,0.00,weatherlink.com 1.10,2013-07-06 07:29:00,
2013-07-06 03:44:00,66.5,66.0,30.16,NNE,29,0.0,0.0,99,0.00,,,0.00,weatherlink.com 1.10,2013-07-06 07:44:00,
2013-07-06 03:59:00,66.4,66.0,30.16,NNE,29,0.0,0.0,99,0.00,,,0.00,weatherlink.com 1.10,2013-07-06 07:59:00,
2013-07-06 04:14:00,66.4,66.0,30.16,NNE,29,0.0,0.0,99,0.00,,,0.00,weatherlink.com 1.10,2013-07-06 08:14:00,
2013-07-06 04:29:00,66.5,66.0,30.17,NNE,29,0.0,1.0,99,0.00,,,0.00,weatherlink.com 1.10,2013-07-06 08:29:00,
2013-07-06 04:45:00,66.3,66.0,30.17,NNE,29,0.0,0.0,99,0.00,,,0.00,weatherlink.com 1.10,2013-07-06 08:45:00,
2013-07-06 04:59:00,66.3,66.0,30.17,NNE,29,0.0,0.0,99,0.01,,,0.01,weatherlink.com 1.10,2013-07-06 08:59:00,
2013-07-06 05:14:00,66.3,66.0,30.17,SSE,150,1.0,1.0,99,0.02,,,0.02,weatherlink.com 1.10,2013-07-06 09:14:00,
2013-07-06 05:29:00,66.7,66.0,30.16,ENE,63,2.0,2.0,99,0.02,,,0.02,weatherlink.com 1.10,2013-07-06 09:29:00,
2013-07-06 05:44:00,66.7,66.0,30.16,North,4,0.0,1.0,99,0.02,,,0.02,weatherlink.com 1.10,2013-07-06 09:44:00,
2013-07-06 05:59:00,66.9,67.0,30.16,NE,39,0.0,2.0,99,0.01,,,0.02,weatherlink.com 1.10,2013-07-06 09:59:00,
2013-07-06 06:14:00,66.9,67.0,30.16,NE,40,1.0,2.0,99,0.00,,,0.02,weatherlink.com 1.10,2013-07-06 10:14:00,
2013-07-06 06:29:00,66.8,67.0,30.16,NNE,32,1.0,1.0,99,0.00,,,0.02,weatherlink.com 1.10,2013-07-06 10:29:00,
2013-07-06 06:44:00,66.5,66.0,30.16,NNE,18,1.0,2.0,99,0.00,,,0.02,weatherlink.com 1.10,2013-07-06 10:44:00,
2013-07-06 06:59:00,66.5,66.0,30.16,NE,54,0.0,2.0,99,0.00,,,0.02,weatherlink.com 1.10,2013-07-06 10:59:00,
2013-07-06 07:15:00,66.9,67.0,30.16,NNE,21,0.0,3.0,99,0.00,,,0.02,weatherlink.com 1.10,2013-07-06 11:15:00,
2013-07-06 07:29:00,67.5,67.0,30.17,NNE,12,0.0,1.0,99,0.00,,,0.02,weatherlink.com 1.10,2013-07-06 11:29:00,
2013-07-06 07:44:00,68.3,68.0,30.16,North,11,0.0,1.0,99,0.00,,,0.02,weatherlink.com 1.10,2013-07-06 11:44:00,
2013-07-06 07:59:00,68.4,68.0,30.16,North,11,0.0,0.0,99,0.00,,,0.02,weatherlink.com 1.10,2013-07-06 11:59:00,
2013-07-06 08:14:00,69.1,69.0,30.16,NNE,12,0.0,0.0,99,0.00,,,0.02,weatherlink.com 1.10,2013-07-06 12:14:00,
2013-07-06 08:30:00,69.0,69.0,30.17,North,11,0.0,1.0,98,0.00,,,0.02,weatherlink.com 1.10,2013-07-06 12:30:00,
2013-07-06 08:45:00,69.5,68.0,30.17,North,11,0.0,1.0,96,0.00,,,0.02,weatherlink.com 1.10,2013-07-06 12:45:00,
2013-07-06 09:00:00,70.5,69.0,30.17,NE,56,0.0,1.0,95,0.00,,,0.02,weatherlink.com 1.10,2013-07-06 13:00:00,
2013-07-06 09:15:00,72.0,70.0,30.17,SSE,148,2.0,2.0,93,0.00,,,0.02,weatherlink.com 1.10,2013-07-06 13:15:00,
2013-07-06 09:30:00,73.3,70.0,30.17,SSE,159,2.0,5.0,90,0.00,,,0.02,weatherlink.com 1.10,2013-07-06 13:30:00,
2013-07-06 09:45:00,73.8,69.0,30.17,SW,217,2.0,6.0,85,0.00,,,0.02,weatherlink.com 1.10,2013-07-06 13:45:00,
2013-07-06 10:00:00,75.0,70.0,30.17,South,172,1.0,3.0,85,0.00,,,0.02,weatherlink.com 1.10,2013-07-06 14:00:00,
2013-07-06 10:15:00,75.3,70.0,30.17,SSE,156,1.0,6.0,83,0.00,,,0.02,weatherlink.com 1.10,2013-07-06 14:15:00,
2013-07-06 10:30:00,76.2,72.0,30.16,SSE,149,0.0,1.0,86,0.00,,,0.02,weatherlink.com 1.10,2013-07-06 14:30:00,
2013-07-06 10:45:00,76.8,70.0,30.16,SE,142,0.0,2.0,80,0.00,,,0.02,weatherlink.com 1.10,2013-07-06 14:45:00,
2013-07-06 11:00:00,77.1,72.0,30.16,SW,230,0.0,2.0,83,0.00,,,0.02,weatherlink.com 1.10,2013-07-06 15:00:00,
2013-07-06 11:15:00,78.0,71.0,30.16,SW,221,1.0,4.0,80,0.00,,,0.02,weatherlink.com 1.10,2013-07-06 15:15:00,
2013-07-06 11:30:00,79.6,69.0,30.16,SSE,155,5.0,11.0,71,0.00,,,0.02,weatherlink.com 1.10,2013-07-06 15:30:00,
2013-07-06 11:45:00,79.4,70.0,30.16,SE,146,3.0,12.0,74,0.00,,,0.02,weatherlink.com 1.10,2013-07-06 15:45:00,
2013-07-06 12:00:00,79.9,71.0,30.16,SSE,158,2.0,6.0,73,0.00,,,0.02,weatherlink.com 1.10,2013-07-06 16:00:00,
2013-07-06 12:16:00,80.6,70.0,30.15,South,174,7.0,11.0,69,0.00,,,0.02,weatherlink.com 1.10,2013-07-06 16:16:00,
2013-07-06 12:30:00,79.9,70.0,30.15,WSW,240,4.0,11.0,71,0.00,,,0.02,weatherlink.com 1.10,2013-07-06 16:30:00,
2013-07-06 12:46:00,79.2,69.0,30.15,SE,143,5.0,10.0,71,0.00,,,0.02,weatherlink.com 1.10,2013-07-06 16:46:00,
2013-07-06 13:15:00,81.5,70.0,30.14,SW,229,6.0,7.0,68,0.00,,,0.02,weatherlink.com 1.10,2013-07-06 17:15:00,
2013-07-06 13:46:00,80.7,69.0,30.13,SSW,199,8.0,15.0,67,0.00,,,0.02,weatherlink.com 1.10,2013-07-06 17:46:00,
2013-07-06 14:01:00,81.3,69.0,30.12,South,181,5.0,13.0,66,0.00,,,0.02,weatherlink.com 1.10,2013-07-06 18:01:00,
2013-07-06 14:16:00,81.9,68.0,30.12,WSW,257,4.0,11.0,63,0.00,,,0.02,weatherlink.com 1.10,2013-07-06 18:16:00,
2013-07-06 15:01:00,83.7,69.0,30.10,South,177,9.0,13.0,61,0.00,,,0.02,weatherlink.com 1.10,2013-07-06 19:01:00,
2013-07-06 15:16:00,83.8,69.0,30.09,South,172,2.0,17.0,62,0.00,,,0.02,weatherlink.com 1.10,2013-07-06 19:16:00,
2013-07-06 15:31:00,83.9,68.0,30.08,SW,229,6.0,11.0,60,0.00,,,0.02,weatherlink.com 1.10,2013-07-06 19:31:00,
2013-07-06 15:46:00,84.3,70.0,30.08,SSW,203,7.0,12.0,62,0.00,,,0.02,weatherlink.com 1.10,2013-07-06 19:46:00,
2013-07-06 16:16:00,83.6,69.0,30.08,SSW,203,4.0,11.0,61,0.00,,,0.02,weatherlink.com 1.10,2013-07-06 20:16:00,
2013-07-06 16:31:00,85.7,71.0,30.07,SSW,198,8.0,10.0,62,0.00,,,0.02,weatherlink.com 1.10,2013-07-06 20:31:00,
2013-07-06 16:46:00,85.1,69.0,30.07,South,172,2.0,11.0,58,0.00,,,0.02,weatherlink.com 1.10,2013-07-06 20:46:00,
2013-07-06 17:01:00,84.8,70.0,30.06,WSW,239,2.0,13.0,61,0.00,,,0.02,weatherlink.com 1.10,2013-07-06 21:01:00,
2013-07-06 17:31:00,84.1,69.0,30.06,SE,144,3.0,6.0,61,0.00,,,0.02,weatherlink.com 1.10,2013-07-06 21:31:00,
2013-07-06 17:46:00,77.9,72.0,30.07,NNW,346,0.0,7.0,81,0.04,,,0.06,weatherlink.com 1.10,2013-07-06 21:46:00,
2013-07-06 18:01:00,75.4,73.0,30.07,North,9,0.0,1.0,91,0.04,,,0.06,weatherlink.com 1.10,2013-07-06 22:01:00,
2013-07-06 18:46:00,73.1,69.0,30.08,ESE,103,0.0,4.0,88,0.00,,,0.06,weatherlink.com 1.10,2013-07-06 22:46:00,
2013-07-06 19:01:00,72.3,69.0,30.09,SE,139,1.0,2.0,89,0.00,,,0.06,weatherlink.com 1.10,2013-07-06 23:01:00,
2013-07-06 20:31:00,66.6,65.0,30.14,SE,133,1.0,5.0,95,0.00,,,0.37,weatherlink.com 1.10,2013-07-07 00:31:00,
2013-07-06 20:46:00,66.3,65.0,30.16,SSE,162,3.0,4.0,95,0.00,,,0.37,weatherlink.com 1.10,2013-07-07 00:46:00,
2013-07-06 21:01:00,66.2,65.0,30.16,SE,127,0.0,2.0,96,0.00,,,0.37,weatherlink.com 1.10,2013-07-07 01:01:00,
2013-07-06 23:02:00,65.7,65.0,30.18,South,169,0.0,1.0,98,0.00,,,0.42,weatherlink.com 1.10,2013-07-07 03:02:00,
2013-07-06 23:46:00,65.6,65.0,30.17,SSE,156,0.0,1.0,99,0.00,,,0.42,weatherlink.com 1.10,2013-07-07 03:46:00,